Cairo, Egypt

3:24 AM EET on September 23, 2017 (GMT +0200)
Cairo International Airport

Weather History for HECA - January, 2013

Change the Weather History Date:

Thursday, January 10, 2013

  Actual Average Record
Temperature  
Mean Temperature 50 °F -  
Max Temperature 55 °F 65 °F 73 °F (2003)
Min Temperature 45 °F 48 °F 40 °F (2015)
Degree Days  
Heating Degree Days 15    
Moisture  
Dew Point 41 °F    
Average Humidity 73    
Maximum Humidity 82    
Minimum Humidity 54    
Precipitation  
Precipitation 0.00 in 0.01 in - ()
Sea Level Pressure  
Sea Level Pressure 30.19 in    
Wind  
Wind Speed 9 mph ()    
Max Wind Speed 22 mph    
Max Gust Speed -    
Visibility 5.4 miles    
Events      
Averages and records for this station are not official NWS values.
T = Trace of Precipitation, MM = Missing Value Source: Averaged Metar Reports

Daily Weather History Graph

Daily Weather History Graph

Search for Another Location

Airport or City:

Trip Planner

Search our weather history database for the weather conditions in past years. The results will help you decide how hot, cold, wet, or windy it might be!

Date:

Astronomy

Jan. 10, 2013 Rise Set
Actual Time 6:51 AM EET 5:12 PM EET
Civil Twilight 6:25 AM EET 5:38 PM EET
Nautical Twilight 5:56 AM EET 6:08 PM EET
Astronomical Twilight 5:27 AM EET 6:37 PM EET
Moon 5:11 AM EET (1/10) 3:57 PM EET (1/10)
Length of Visible Light 11h 12m
Length of Day
10h 20m
Waning Crescent, 3% of the Moon is Illuminated
Jan 10
Waning Crescent
Jan 11
New
Jan 19
First Quarter
Jan 27
Full
Feb 3
Last Quarter

Hourly Weather History & Observations

Time (EET) Temp. Windchill Dew Point Humidity Pressure Visibility Wind Dir Wind Speed Gust Speed Precip Events Conditions
12:00 AM 48.2 °F - 41.0 °F 76% 30.15 in 6.2 mi WSW 11.5 mph - N/A   Mostly Cloudy
12:30 AM 48.2 °F - 41.0 °F 76% 30.15 in 6.2 mi SW 9.2 mph - N/A   Mostly Cloudy
1:00 AM 46.4 °F 41.9 °F 41.0 °F 81% 30.15 in 6.2 mi SW 9.2 mph - N/A   Mostly Cloudy
1:30 AM 46.4 °F 41.9 °F 41.0 °F 81% 30.15 in 6.2 mi SW 9.2 mph - N/A   Mostly Cloudy
1:56 AM 46.4 °F 42.4 °F 41.0 °F 81% 30.15 in 6.2 mi SW 8.1 mph - N/A   Mostly Cloudy
2:00 AM 47 °F - 40 °F 71% 30.18 in 6 mi SW 8.1 mph - -   Partly Cloudy
2:00 AM 46.4 °F 42.4 °F 41.0 °F 81% 30.15 in 6.2 mi SW 8.1 mph - N/A   Mostly Cloudy
2:30 AM 46.4 °F 42.4 °F 41.0 °F 81% 30.15 in 6.2 mi SW 8.1 mph - N/A   Mostly Cloudy
3:00 AM 46.4 °F 41.9 °F 41.0 °F 81% 30.15 in 6.2 mi SW 9.2 mph - N/A   Mostly Cloudy
3:30 AM 46.4 °F 41.9 °F 41.0 °F 81% 30.15 in 6.2 mi SW 9.2 mph - N/A   Mostly Cloudy
4:00 AM 46.4 °F 42.4 °F 41.0 °F 81% 30.15 in 6.2 mi WSW 8.1 mph - N/A   Mostly Cloudy
4:30 AM 46.4 °F 42.4 °F 39.2 °F 76% 30.15 in 6.2 mi WSW 8.1 mph - N/A   Mostly Cloudy
5:00 AM 46.4 °F 41.9 °F 39.2 °F 76% 30.15 in 6.2 mi SW 9.2 mph - N/A   Mostly Cloudy
5:30 AM 46.4 °F 41.9 °F 39.2 °F 76% 30.15 in 6.2 mi SW 9.2 mph - N/A   Mostly Cloudy
6:00 AM 46.4 °F 42.4 °F 39.2 °F 76% 30.15 in 6.2 mi SW 8.1 mph - N/A   Mostly Cloudy
6:30 AM 46.4 °F 41.5 °F 41.0 °F 81% 30.15 in 6.2 mi SSW 10.4 mph - N/A   Mostly Cloudy
7:00 AM 46.4 °F 41.9 °F 39.2 °F 76% 30.15 in 6.2 mi South 9.2 mph - N/A   Mostly Cloudy
7:30 AM 46.4 °F 41.5 °F 39.2 °F 76% 30.18 in 6.2 mi SSW 10.4 mph - N/A   Mostly Cloudy
8:00 AM 46 °F - 41 °F 75% 30.21 in 4 mi SSW 11.5 mph - -   Mist
8:00 AM 46.4 °F 41.1 °F 41.0 °F 81% 30.18 in 3.7 mi SSW 11.5 mph - N/A   Mostly Cloudy
8:30 AM 48.2 °F - 41.0 °F 76% 30.21 in 3.7 mi SSW 11.5 mph - N/A   Mostly Cloudy
9:00 AM 48.2 °F - 41.0 °F 76% 30.21 in 3.7 mi SSW 11.5 mph - N/A   Mostly Cloudy
9:30 AM 48.2 °F - 42.8 °F 82% 30.21 in 1.9 mi South 10.4 mph - N/A   Mostly Cloudy
10:00 AM 48.2 °F - 42.8 °F 82% 30.21 in 1.9 mi SSW 9.2 mph - N/A   Mostly Cloudy
10:30 AM 48.2 °F - 42.8 °F 82% 30.21 in 1.9 mi SSW 9.2 mph - N/A   Mostly Cloudy
11:00 AM 50.0 °F - 42.8 °F 76% 30.21 in 1.9 mi SW 9.2 mph - N/A   Mostly Cloudy
11:30 AM 50.0 °F - 41.0 °F 71% 30.21 in 1.9 mi WSW 9.2 mph - N/A   Mostly Cloudy
12:00 PM 50.0 °F - 41.0 °F 71% 30.21 in 3.7 mi WSW 5.8 mph - N/A   Mostly Cloudy
12:30 PM 50.0 °F - 41.0 °F 71% 30.18 in 6.2 mi SW 8.1 mph - N/A   Mostly Cloudy
1:00 PM 50.0 °F - 42.8 °F 76% 30.18 in 6.2 mi South 10.4 mph - N/A   Mostly Cloudy
1:30 PM 51.8 °F - 42.8 °F 71% 30.18 in 6.2 mi South 9.2 mph - N/A   Mostly Cloudy
2:00 PM 54 °F - 43 °F 58% 30.19 in 6 mi SSW 11.5 mph - -  
2:00 PM 53.6 °F - 42.8 °F 67% 30.18 in 6.2 mi SSW 21.9 mph - N/A   Mostly Cloudy
2:30 PM 53.6 °F - 41.0 °F 62% 30.18 in 6.2 mi SW 12.7 mph - N/A   Mostly Cloudy
3:00 PM 55.4 °F - 39.2 °F 54% 30.18 in 6.2 mi WSW 11.5 mph - N/A   Mostly Cloudy
3:30 PM 55.4 °F - 39.2 °F 54% 30.18 in 6.2 mi West 11.5 mph - N/A   Mostly Cloudy
4:00 PM 53.6 °F - 37.4 °F 54% 30.18 in 6.2 mi SW 11.5 mph - N/A   Mostly Cloudy
4:30 PM 53.6 °F - 39.2 °F 58% 30.21 in 6.2 mi WSW 6.9 mph - N/A   Mostly Cloudy
5:00 PM 53.6 °F - 39.2 °F 58% 30.21 in 6.2 mi WSW 9.2 mph - N/A   Mostly Cloudy
5:30 PM 51.8 °F - 39.2 °F 62% 30.21 in 6.2 mi WSW 6.9 mph - N/A   Mostly Cloudy
6:00 PM 51.8 °F - 37.4 °F 58% 30.21 in 6.2 mi WSW 8.1 mph - N/A   Mostly Cloudy
6:30 PM 51.8 °F - 37.4 °F 58% 30.24 in 6.2 mi South 8.1 mph - N/A   Mostly Cloudy
7:00 PM 50.0 °F - 42.8 °F 76% 30.24 in 6.2 mi South 8.1 mph - N/A   Mostly Cloudy
7:30 PM 50.0 °F - 42.8 °F 76% 30.24 in 6.2 mi South 8.1 mph - N/A   Mostly Cloudy
8:00 PM 50.0 °F - 42.8 °F 76% 30.24 in - South 6.9 mph - N/A   Clear
8:30 PM 50.0 °F - 42.8 °F 76% 30.24 in - South 6.9 mph - N/A   Clear
9:00 PM 48.2 °F - 42.8 °F 82% 30.24 in - SSE 9.2 mph - N/A   Clear
9:30 PM 48.2 °F - 42.8 °F 82% 30.24 in - SSE 9.2 mph - N/A   Clear
10:00 PM 48.2 °F - 41.0 °F 76% 30.27 in - SSE 6.9 mph - N/A   Clear
10:30 PM 46.4 °F 42.9 °F 41.0 °F 81% 30.27 in - SSE 6.9 mph - N/A   Clear
11:00 PM 48.2 °F - 41.0 °F 76% 30.27 in - SSE 8.1 mph - N/A   Clear
11:30 PM 48.2 °F - 41.0 °F 76% 30.27 in - SSE 8.1 mph - N/A   Clear